STARLINK-36211, 67218

Orbit data source: Space-Track

STARLINK-36211, 67218 is a payload satellite owned by SpaceX/Seattle (US) in LEO that was launched on Wed, 17 Dec 2025 UTC via an FALCON 9 launch vehicle from the Air Force Western Test Range (AFWTR). Payload-class satellites include a variety of spacecraft equipped with specific instruments for various scientific and technological missions. These include communications satellites like Starlink; space stations such as the ISS; scientific satellites like the Hubble; Earth observation satellites from companies like Planet Labs, Umbra, and HawkEye 360; GPS; miniature CubeSats for education and research; and military/defense satellites.

Loading next visibility...
Identifier
67218, 2025-304AC
Orbit
LEO
Country
Flag of USUS
Related business
Manufacturer
SpaceX/Seattle
Mission
Operational Commercial Communications
Bus & Motor
STARLINK V2MO, Unknown motor
Mass
575 kg wet, ~530 kg dry
Launch date (UTC)
2025-12-17 (6 months ago)
Launch vehicle
FALCON 9
Launch site
Air Force Western Test Range (AFWTR)
Object type
Payload
Rocket body
Debris
Shape & HBR
Box + 2 Pan, 17.7 m
Radar Cross Section
36.964 m², Large (>1 m²)

Expand to show TLE details & history
Last TLE update: 12 hours ago

TLE from 12 hours ago
0 STARLINK-36211
1 67218U 25304AC  26171.35618578  .00002857  00000-0  24709-3 0  9995
2 67218  70.0008 275.5697 0003362 267.4766  92.6008 14.98334822 29239
Epoch: 2026-06-20T08:32Z
TLE epoch observation values (Epoch: 2026-06-20T08:32:54.451Z)
Latitude
-0.00004°
Longitude
-121.22918°
Altitude
574.572 km
Speed
7.574 km/s
True Right ascension
18h 22m 16s
True Declination
0° 00' 00"
Sunlit
Object was in full shadow at epoch
Visualization orbit readout
Latitude
Unknown
Longitude
Unknown
Altitude
Unknown
Speed
Unknown
Apparent Right ascension
Unknown
Apparent Declination
Unknown
Sunlit
N/A
Visualization observer readout
Local Sidereal Time
07:14:55
Azimuth
Unknown
Elevation
Unknown
Doppler factor
Unknown
Orbital elements
Apogee altitude
572.325 km
Perigee altitude
567.653 km
Semi-major axis
6,948.126 km
Eccentricity
0.00034
Inclination
70.0008°
RAAN
275.5697°
Arg. of periapsis
267.4766°
True anomaly
92.63929°
Mean anomaly
92.6008°
Eccentric anomaly
92.62004°
Mean motion
3.7475 °/min
Orbital period
96.06 mins
BSTAR
0.00024709
Loading maneuver chart data...
Computing Atmospheric mass density...
Loading historical data...
Loading historical data...
Loading historical data...
Loading historical data...
Loading historical data...
Loading historical data...
Loading historical data...

Documentation

Showing up to 5 results
|